Location: Rounton
(54.4000°N, 1.3500°W)
Time: 13:59:57
(UTC+00:00)

Transit 2A - Pass Details

Date: 07 December 2021
Orbit: 591 x 967 km, 66.7° (Epoch: 21 January)

Event Time Altitude Azimuth Distance (km) Brightness Sun altitude
Rises 22:05:13 0° 165° (SSE) 3,350 - -52.0°
Reaches altitude 10° 22:08:14 10° 148° (SSE) 2,489 - -52.3°
Maximum altitude 22:12:12 19° 105° (ESE) 1,988 - -52.7°
Drops below altitude 10° 22:16:23 10° 62° (ENE) 2,644 - -53.1°
Sets 22:19:42 0° 46° (NE) 3,632 - -53.4°
